CW6641 Weather Reports


time (UTC)temp
C
wind
direction
speed
KPH
gust
KPH
rain 1hr
cm
rain 24hr
cm
rain mn
cm
humidity
%
barometer
mb
20260906104300 24 0.0 0.0 0.00 0.00 0.00 85 1013.4
20260906103758 25 0.0 0.0 0.00 0.00 0.00 85 1013.2
20260906103257 25 0.0 0.0 0.00 0.00 0.00 85 1013.2
20260906102754 25 0.0 0.0 0.00 0.00 0.00 85 1013.0
20260906102252 25 0.0 0.0 0.00 0.00 0.00 85 1013.2
20260906101748 25 0.0 0.0 0.00 0.00 0.00 84 1013.0
20260906101242 25 0.0 0.0 0.00 0.00 0.00 84 1013.1
20260906100738 25 0.0 0.0 0.00 0.00 0.00 84 1013.0
20260906100237 25 0.0 0.0 0.00 0.00 0.00 84 1012.8
20260906095733 25 0.0 0.0 0.00 0.00 0.00 84 1012.9
20260906095228 25 0.0 0.0 0.00 0.00 0.00 84 1012.9
20260906094727 25 0.0 0.0 0.00 0.00 0.00 85 1013.0
20260906094222 25 0.0 0.0 0.00 0.00 0.00 84 1012.7
20260906093718 25 0.0 0.0 0.00 0.00 0.00 84 1013.0
20260906093214 25 0.0 0.0 0.00 0.00 0.00 84 1012.9
20260906092709 25 0.0 0.0 0.00 0.00 0.00 83 1013.2
20260906092208 25 0.0 0.0 0.00 0.00 0.00 83 1012.9
20260906091705 25 0.0 0.0 0.00 0.00 0.00 82 1012.6
20260906091201 25 0.0 0.0 0.00 0.00 0.00 82 1012.9
20260906090657 25 0.0 0.0 0.00 0.00 0.00 82 1012.6
20260906090155 25 0.0 0.0 0.00 0.00 0.00 82 1012.7
20260906085655 25 0.0 0.0 0.00 0.00 0.00 82 1012.7
20260906085149 25 0.0 0.0 0.00 0.00 0.00 82 1012.6
20260906084644 25 0.0 0.0 0.00 0.00 0.00 82 1012.7
20260906084143 25 0.0 0.0 0.00 0.00 0.00 82 1012.6
20260906083638 25 0.0 0.0 0.00 0.00 0.00 82 1012.7
20260906083133 25 0.0 0.0 0.00 0.00 0.00 82 1012.8
20260906082629 25 0.0 0.0 0.00 0.00 0.00 82 1012.7
20260906082124 24 0.0 0.0 0.00 0.00 0.00 82 1012.6
20260906081620 25 0.0 0.0 0.00 0.00 0.00 82 1012.7
20260906081115 24 0.0 0.0 0.00 0.00 0.00 83 1012.6
20260906080611 24 0.0 0.0 0.00 0.00 0.00 82 1012.5
20260906080107 24 0.0 0.0 0.00 0.00 0.00 82 1012.5
20260906075601 25 0.0 0.0 0.00 0.00 0.00 82 1012.6
20260906075056 25 0.0 0.0 0.00 0.00 0.00 81 1012.5
20260906074551 25 0.0 0.0 0.00 0.00 0.00 81 1012.6
20260906074049 25 0.0 0.0 0.00 0.00 0.00 81 1012.6
20260906073544 25 0.0 0.0 0.00 0.00 0.00 80 1012.6
20260906073040 25 0.0 0.0 0.00 0.00 0.00 79 1012.5
20260906072535 25 0.0 0.0 0.00 0.00 0.00 79 1012.5
20260906072031 25 0.0 0.0 0.00 0.00 0.00 79 1012.1
20260906071527 25 0.0 0.0 0.00 0.00 0.00 79 1012.5
20260906071022 25 0.0 0.0 0.00 0.00 0.00 79 1012.5
20260906070519 25 0.0 0.0 0.00 0.00 0.00 79 1012.7
20260906070014 25 0.0 0.0 0.00 0.00 0.00 79 1012.7
20260906065513 25 0.0 0.0 0.00 0.00 0.00 78 1012.5
20260906065009 25 0.0 0.0 0.00 0.00 0.00 78 1012.9
20260906064505 25 0.0 0.0 0.00 0.00 0.00 78 1012.8
20260906064000 25 0.0 0.0 0.00 0.00 0.00 78 1012.9
20260906063455 26 0.0 0.0 0.00 0.00 0.00 78 1012.8
20260906062949 26 0.0 0.0 0.00 0.00 0.00 80 1012.8
20260906062444 26 0.0 0.0 0.00 0.00 0.00 78 1012.7
20260906061939 26 0.0 0.0 0.00 0.00 0.00 78 1013.1
20260906061430 26 0.0 0.0 0.00 0.00 0.00 78 1013.1
20260906060930 26 0.0 0.0 0.00 0.00 0.00 79 1013.0
20260906060427 26 0.0 0.0 0.00 0.00 0.00 79 1013.2
20260906055923 26 0.0 0.0 0.00 0.00 0.00 79 1013.0
20260906055419 26 0.0 0.0 0.00 0.00 0.00 79 1013.0
20260906054914 26 0.0 0.0 0.00 0.00 0.00 76 1012.9
20260906054409 26 0.0 0.0 0.00 0.00 0.00 76 1012.9
20260906053905 26 0.0 0.0 0.00 0.00 0.00 76 1013.0
20260906053400 26 0.0 0.0 0.00 0.00 0.00 76 1013.0
20260906052856 26 0.0 0.0 0.00 0.00 0.00 76 1013.0
20260906052352 26 0.0 0.0 0.00 0.00 0.00 76 1013.0
20260906051849 26 0.0 0.0 0.00 0.00 0.00 76 1013.1
20260906051348 26 0.0 0.0 0.00 0.00 0.00 76 1013.1
20260906050844 26 0.0 0.0 0.00 0.00 0.00 76 1013.1
20260906050339 26 0.0 0.0 0.00 0.00 0.00 76 1013.1
20260906045838 26 0.0 0.0 0.00 0.10 0.10 76 1013.1
20260906045332 26 0.0 0.0 0.00 0.10 0.10 77 1013.1
20260906044828 26 0.0 0.0 0.00 0.10 0.10 77 1013.2
20260906044323 26 0.0 0.0 0.00 0.10 0.10 77 1013.3
20260906043819 26 0.0 0.0 0.00 0.10 0.10 77 1013.1
20260906043315 26 0.0 0.0 0.00 0.10 0.10 77 1013.0
20260906042814 26 0.0 0.0 0.00 0.10 0.10 76 1012.8
20260906042314 26 0.0 0.0 0.00 0.10 0.10 76 1012.7
20260906041809 27 0.0 0.0 0.00 0.10 0.10 74 1012.5
20260906041304 27 0.0 0.0 0.00 0.10 0.10 74 1012.6
20260906040759 27 0.0 0.0 0.00 0.10 0.10 74 1012.5
20260906040255 27 0.0 0.0 0.00 0.10 0.10 74 1012.6
20260906035750 27 0.0 0.0 0.00 0.10 0.10 74 1012.5
20260906035246 27 0.0 0.0 0.00 0.10 0.10 74 1012.6
20260906034746 27 0.0 0.0 0.00 0.10 0.10 73 1012.7
20260906034241 27 0.0 0.0 0.00 0.10 0.10 73 1012.6
20260906033737 27 0.0 0.0 0.00 0.10 0.10 73 1012.3
20260906033236 27 0.0 0.0 0.00 0.10 0.10 73 1012.5
20260906032733 27 0.0 0.0 0.00 0.10 0.10 73 1012.6
20260906032232 27 0.0 0.0 0.00 0.10 0.10 73 1012.6
20260906031728 27 0.0 0.0 0.00 0.10 0.10 72 1012.5
20260906031224 27 0.0 0.0 0.00 0.10 0.10 72 1012.4
20260906030723 27 0.0 0.0 0.00 0.10 0.10 71 1012.4
20260906030218 27 0.0 0.0 0.00 0.10 0.10 70 1012.3
20260906025717 28 0.0 0.0 0.00 0.10 0.10 71 1012.3
20260906025212 28 0.0 0.0 0.00 0.10 0.10 71 1012.1
20260906024711 28 0.0 0.0 0.00 0.10 0.10 71 1012.1
20260906024210 28 0.0 0.0 0.00 0.10 0.10 71 1011.9
20260906023706 28 0.0 0.0 0.00 0.10 0.10 71 1011.8
20260906023201 28 0.0 0.0 0.00 0.10 0.10 71 1011.9
20260906022656 28 0.0 0.0 0.00 0.10 0.10 71 1011.8
20260906022152 28 0.0 0.0 0.00 0.10 0.10 70 1011.6
20260906021648 28 0.0 0.0 0.00 0.10 0.10 71 1011.5
20260906021146 28 0.0 0.0 0.00 0.10 0.10 71 1011.4
20260906020641 28 0.0 0.0 0.00 0.10 0.10 72 1011.7
20260906020136 28 0.0 0.0 0.00 0.10 0.10 72 1011.5
20260906015630 28 0.0 0.0 0.00 0.10 0.10 71 1011.5
20260906015128 28 0.0 0.0 0.00 0.10 0.10 72 1011.5
20260906014623 28 0.0 0.0 0.00 0.10 0.10 71 1011.4
20260906014119 29 0.0 0.0 0.00 0.10 0.10 71 1011.6
20260906013614 29 0.0 0.0 0.00 0.10 0.10 71 1011.5
20260906013110 29 0.0 0.0 0.00 0.10 0.10 70 1011.5
20260906012605 29 0.0 0.0 0.00 0.10 0.10 71 1011.5
20260906012059 29 0.0 0.0 0.00 0.10 0.10 71 1011.5
20260906011555 30 0.0 0.0 0.00 0.10 0.10 72 1011.4
20260906011055 30 0.0 0.0 0.00 0.10 0.10 70 1011.3
20260906010550 30 0.0 0.0 0.00 0.10 0.10 70 1011.2
20260906010047 30 0.0 0.0 0.00 0.10 0.10 69 1011.3
20260906005546 30 0.0 0.0 0.00 0.10 0.10 67 1011.2
20260906005045 30 0.0 0.0 0.00 0.10 0.10 67 1011.2
20260906004545 30 0.0 0.0 0.00 0.10 0.10 66 1011.2
20260906004039 30 0.0 0.0 0.00 0.10 0.10 67 1011.1
20260906003534 30 0.0 0.0 0.00 0.10 0.10 65 1010.9
20260906003031 30 0.0 0.0 0.00 0.10 0.10 65 1010.8
20260906002525 31 0.0 0.0 0.00 0.10 0.10 63 1010.9
20260906002020 31 0.0 0.0 0.00 0.10 0.10 64 1010.8
20260906001515 31 0.0 0.0 0.00 0.10 0.10 62 1011.1
20260906001004 32 0.0 0.0 0.00 0.10 0.10 62 1011.0
20260906000500 32 0.0 0.0 0.00 0.10 0.10 62 1011.2
20260905235959 32 0.0 0.0 0.00 0.10 0.10 60 1011.1
20260905235454 32 0.0 0.0 0.00 0.10 0.10 57 1011.4
20260905234949 32 0.0 0.0 0.00 0.10 0.10 57 1011.1
20260905234444 32 0.0 0.0 0.00 0.10 0.10 57 1011.4
20260905233938 32 0.0 0.0 0.00 0.10 0.10 57 1011.4
20260905233434 32 0.0 0.0 0.00 0.10 0.10 58 1011.4
20260905232933 32 0.0 0.0 0.00 0.10 0.10 59 1011.3
20260905232429 32 0.0 0.0 0.00 0.10 0.10 59 1011.3
20260905231924 31 0.0 0.0 0.00 0.10 0.10 60 1011.3
20260905231420 32 0.0 0.0 0.00 0.10 0.10 63 1011.0
20260905230917 32 0.0 0.0 0.00 0.10 0.10 64 1011.1
20260905230415 31 0.0 0.0 0.00 0.10 0.10 61 1011.0
20260905225914 31 0.0 0.0 0.00 0.10 0.10 65 1010.8
20260905225409 31 0.0 0.0 0.00 0.10 0.10 61 1011.3
20260905224904 31 0.0 0.0 0.00 0.10 0.10 62 1010.7
20260905224400 30 0.0 0.0 0.00 0.10 0.10 63 1011.0
20260905223854 30 0.0 0.0 0.00 0.10 0.10 65 1010.9
20260905223351 30 0.0 0.0 0.00 0.10 0.10 66 1010.9
20260905222846 30 0.0 0.0 0.00 0.10 0.10 66 1010.7
20260905222345 30 0.0 0.0 0.00 0.10 0.10 65 1010.8
20260905221841 30 0.0 0.0 0.00 0.10 0.10 60 1011.0
20260905221337 31 0.0 0.0 0.00 0.10 0.10 58 1010.9
20260905220833 32 0.0 0.0 0.00 0.10 0.10 56 1010.8
20260905220329 33 0.0 0.0 0.48 0.10 0.10 55 1010.8
20260905215828 35 0.0 0.0 0.61 0.10 0.10 49 1010.7
20260905215324 36 0.0 0.0 0.13 0.03 0.03 44 1010.9
20260905214821 36 0.0 0.0 0.00 0.00 0.00 41 1010.8
20260905214315 36 0.0 0.0 0.00 0.00 0.00 39 1010.6
20260905213810 36 0.0 0.0 0.00 0.00 0.00 40 1010.5
20260905213306 37 0.0 0.0 0.00 0.00 0.00 41 1010.7
20260905212801 37 0.0 0.0 0.00 0.00 0.00 41 1010.6
20260905212301 37 0.0 0.0 0.00 0.00 0.00 39 1010.6
20260905211755 37 0.0 0.0 0.00 0.00 0.00 40 1010.7
20260905211250 37 0.0 0.0 0.00 0.00 0.00 39 1010.6
20260905210747 37 0.0 0.0 0.00 0.00 0.00 40 1010.7
20260905210247 37 0.0 0.0 0.00 0.00 0.00 40 1010.8
20260905205745 37 0.0 0.0 0.00 0.00 0.00 39 1010.8
20260905205240 37 0.0 0.0 0.00 0.00 0.00 39 1010.9
20260905204740 37 0.0 0.0 0.00 0.00 0.00 38 1011.2
20260905204236 37 0.0 0.0 0.00 0.00 0.00 39 1011.0
20260905203735 37 0.0 0.0 0.00 0.00 0.00 36 1011.3
20260905203231 37 0.0 0.0 0.00 0.00 0.00 38 1011.3
20260905202726 37 0.0 0.0 0.00 0.00 0.00 40 1011.4
20260905202221 37 0.0 0.0 0.00 0.00 0.00 38 1011.2
20260905201716 37 0.0 0.0 0.00 0.00 0.00 39 1011.5
20260905201211 37 0.0 0.0 0.00 0.00 0.00 38 1011.3
20260905200706 37 0.0 0.0 0.00 0.00 0.00 38 1011.4
20260905200202 37 0.0 0.0 0.00 0.00 0.00 41 1011.6
20260905195700 36 0.0 0.0 0.00 0.00 0.00 40 1011.7
20260905195154 36 0.0 0.0 0.00 0.00 0.00 39 1011.6
20260905194650 36 0.0 0.0 0.00 0.00 0.00 43 1011.6
20260905194144 36 0.0 0.0 0.00 0.00 0.00 44 1011.9
20260905193638 37 0.0 0.0 0.00 0.00 0.00 42 1012.3
20260905193133 37 0.0 0.0 0.00 0.00 0.00 41 1012.2
20260905192628 37 0.0 0.0 0.00 0.00 0.00 42 1012.0
20260905192125 37 0.0 0.0 0.00 0.00 0.00 42 1012.0
20260905191624 36 0.0 0.0 0.00 0.00 0.00 43 1012.0
20260905191122 36 0.0 0.0 0.00 0.00 0.00 42 1012.3
20260905190621 36 0.0 0.0 0.00 0.00 0.00 41 1012.3
20260905190121 36 0.0 0.0 0.00 0.00 0.00 45 1012.2
20260905185620 37 0.0 0.0 0.00 0.00 0.00 44 1012.5
20260905185114 36 0.0 0.0 0.00 0.00 0.00 45 1012.4
20260905184609 36 0.0 0.0 0.00 0.00 0.00 46 1012.7
20260905184108 36 0.0 0.0 0.00 0.00 0.00 46 1012.3
20260905183607 36 0.0 0.0 0.00 0.00 0.00 45 1012.6
20260905183103 36 0.0 0.0 0.00 0.00 0.00 46 1012.6
20260905182602 35 0.0 0.0 0.00 0.00 0.00 45 1012.7
20260905182056 35 0.0 0.0 0.00 0.00 0.00 46 1012.9
20260905181551 35 0.0 0.0 0.00 0.00 0.00 47 1012.8
20260905181050 35 0.0 0.0 0.00 0.00 0.00 46 1012.7
20260905180545 35 0.0 0.0 0.00 0.00 0.00 47 1012.9
20260905180041 35 0.0 0.0 0.00 0.00 0.00 49 1013.1
20260905175539 35 0.0 0.0 0.00 0.00 0.00 50 1013.1
20260905175035 35 0.0 0.0 0.00 0.00 0.00 49 1013.0
20260905174531 35 0.0 0.0 0.00 0.00 0.00 51 1013.0
20260905174026 35 0.0 0.0 0.00 0.00 0.00 49 1013.3
20260905173523 35 0.0 0.0 0.00 0.00 0.00 50 1013.2
20260905173018 35 0.0 0.0 0.00 0.00 0.00 51 1013.5
20260905172516 35 0.0 0.0 0.00 0.00 0.00 50 1013.6
20260905172012 35 0.0 0.0 0.00 0.00 0.00 51 1013.6
20260905171508 35 0.0 0.0 0.00 0.00 0.00 50 1013.5
20260905171003 35 0.0 0.0 0.00 0.00 0.00 52 1013.5
20260905170500 35 0.0 0.0 0.00 0.00 0.00 52 1013.5
20260905165954 34 0.0 0.0 0.00 0.00 0.00 54 1013.8
20260905165449 34 0.0 0.0 0.00 0.00 0.00 54 1013.8
20260905164943 33 0.0 0.0 0.00 0.00 0.00 56 1014.0
20260905164438 33 0.0 0.0 0.00 0.00 0.00 54 1013.9
20260905163933 33 0.0 0.0 0.00 0.00 0.00 57 1014.1
20260905163429 33 0.0 0.0 0.00 0.00 0.00 58 1014.3
20260905162925 33 0.0 0.0 0.00 0.00 0.00 58 1014.3
20260905162420 33 0.0 0.0 0.00 0.00 0.00 59 1014.2
20260905161915 32 0.0 0.0 0.00 0.00 0.00 59 1014.4
20260905161414 32 0.0 0.0 0.00 0.00 0.00 60 1014.4
20260905160912 32 0.0 0.0 0.00 0.00 0.00 61 1014.8
20260905160406 32 0.0 0.0 0.00 0.00 0.00 60 1014.6
20260905155900 32 0.0 0.0 0.00 0.00 0.00 61 1014.6
20260905155355 32 0.0 0.0 0.00 0.00 0.00 61 1014.6
20260905154854 32 0.0 0.0 0.00 0.00 0.00 62 1014.6
20260905154350 32 0.0 0.0 0.00 0.00 0.00 63 1014.4
20260905153845 32 0.0 0.0 0.00 0.00 0.00 62 1014.6
20260905153341 31 0.0 0.0 0.00 0.00 0.00 63 1014.5
20260905152841 31 0.0 0.0 0.00 0.00 0.00 64 1014.6
20260905152340 31 0.0 0.0 0.00 0.00 0.00 64 1014.6
20260905151835 31 0.0 0.0 0.00 0.00 0.00 66 1014.6
20260905151331 31 0.0 0.0 0.00 0.00 0.00 65 1014.4
20260905150825 31 0.0 0.0 0.00 0.00 0.00 66 1014.6
20260905150319 30 0.0 0.0 0.00 0.00 0.00 67 1014.5
20260905145816 30 0.0 0.0 0.00 0.00 0.00 66 1014.4
20260905145311 30 0.0 0.0 0.00 0.00 0.00 70 1014.5
20260905144809 30 0.0 0.0 0.00 0.00 0.00 70 1014.5
20260905144306 30 0.0 0.0 0.00 0.00 0.00 69 1014.5
20260905143804 30 0.0 0.0 0.00 0.00 0.00 71 1014.4
20260905143259 30 0.0 0.0 0.00 0.00 0.00 72 1014.5
20260905142757 29 0.0 0.0 0.00 0.00 0.00 73 1014.7
20260905142252 29 0.0 0.0 0.00 0.00 0.00 73 1014.7
20260905141748 29 0.0 0.0 0.00 0.00 0.00 76 1014.7
20260905141243 28 0.0 0.0 0.00 0.00 0.00 75 1014.7
20260905140739 28 0.0 0.0 0.00 0.00 0.00 76 1015.0
20260905140233 28 0.0 0.0 0.00 0.00 0.00 78 1014.8
20260905135732 28 0.0 0.0 0.00 0.00 0.00 78 1014.7
20260905135228 27 0.0 0.0 0.00 0.00 0.00 80 1014.6
20260905134727 27 0.0 0.0 0.00 0.00 0.00 80 1014.6
20260905134227 27 0.0 0.0 0.00 0.00 0.00 81 1014.9
20260905133722 27 0.0 0.0 0.00 0.00 0.00 81 1014.8
20260905133217 26 0.0 0.0 0.00 0.00 0.00 83 1014.8
20260905132716 26 0.0 0.0 0.00 0.00 0.00 83 1014.9
20260905132212 26 0.0 0.0 0.00 0.00 0.00 84 1014.7
20260905131706 26 0.0 0.0 0.00 0.00 0.00 84 1015.0
20260905131202 26 0.0 0.0 0.00 0.00 0.00 84 1015.0
20260905130656 26 0.0 0.0 0.00 0.00 0.00 85 1015.0
20260905130155 26 0.0 0.0 0.00 0.00 0.00 85 1015.1
20260905125650 25 0.0 0.0 0.00 0.00 0.00 85 1015.0
20260905125146 25 0.0 0.0 0.00 0.00 0.00 86 1015.0
20260905124642 25 0.0 0.0 0.00 0.00 0.00 85 1015.0
20260905124138 25 0.0 0.0 0.00 0.00 0.00 85 1014.7
20260905123633 25 0.0 0.0 0.00 0.00 0.00 85 1014.8
20260905123130 25 0.0 0.0 0.00 0.00 0.00 85 1014.7
20260905122629 25 0.0 0.0 0.00 0.00 0.00 85 1014.8
20260905122125 25 0.0 0.0 0.00 0.00 0.00 85 1014.7
20260905121619 25 0.0 0.0 0.00 0.00 0.00 85 1014.9
20260905121114 25 0.0 0.0 0.00 0.00 0.00 84 1014.9
20260905120608 25 0.0 0.0 0.00 0.00 0.00 84 1014.6
20260905120103 25 0.0 0.0 0.00 0.00 0.00 84 1014.8
20260905115602 25 0.0 0.0 0.00 0.00 0.00 84 1014.7
20260905115057 25 0.0 0.0 0.00 0.00 0.00 85 1014.5
20260905114556 25 0.0 0.0 0.00 0.00 0.00 84 1014.7
20260905114055 25 0.0 0.0 0.00 0.00 0.00 84 1014.3
20260905113550 25 0.0 0.0 0.00 0.00 0.00 83 1014.3
20260905113045 25 0.0 0.0 0.00 0.00 0.00 83 1014.3
20260905112541 25 0.0 0.0 0.00 0.00 0.00 83 1014.2
20260905112036 25 0.0 0.0 0.00 0.00 0.00 83 1014.0
20260905111531 25 0.0 0.0 0.00 0.00 0.00 83 1014.0
20260905111030 25 0.0 0.0 0.00 0.00 0.00 83 1014.1
20260905110529 25 0.0 0.0 0.00 0.00 0.00 83 1013.9
20260905110024 25 0.0 0.0 0.00 0.00 0.00 83 1014.2
20260905105519 25 0.0 0.0 0.00 0.00 0.00 83 1014.0
20260905105013 25 0.0 0.0 0.00 0.00 0.00 83 1013.9
20260905104509 25 0.0 0.0 0.00 0.00 0.00 83 1013.7